map of TYL home
Great Circle Mapper logo
TYL - Airport
Location
City:  Talara, Piura, Perú
Name:Capitán FAP Victor Montes Airport
ICAO / IATA:SPYL / TYL

Details
Type:Airport (Aerodrome, Airfield)
Use:Public/Civil
Latitude:4°34'22"S (-4.572777)
Longitude:81°15'08"W (-81.252221)
Elevation:282 ft (86 m)
Variation:0.33°W (WMM2015 magnetic declination)
-0.15° annual change
Runways:1
Longest:8071 × 148 ft (2460 × 45 m), paved

Time
Time Zone:UTC-5
Local Time:

Weather
METAR:SPYL 021700Z 15017KT CAVOK 29/19 Q1010 RMK BIRD HAZARD RWY 17/35 PP000
TAF:SPYL 021700Z 0218/0318 18012KT CAVOK TX30/0219Z TN21/0310Z

Related Locations
Nearby:
Farthest:WIMH: 12368 mi / 19905 km
Medan [Helvetia], SU, ID

Find:

   beyond  
but within

Other Information
Maps:
NOTAMs:
Links:
Sources:

  
flag of Perú
flag of Piura
  

Sectional Chart

Flight Planning
at skyvector.com

Satellite Image

Google Maps Satellite view

 

Copyright © 2004-2015 Karl L. Swartz. All rights reserved.
The Great Circle Mapper name and logo are trademarks of the Great Circle Mapper.
All other trademarks mentioned herein belong to their respective owners.
Please see credits for attibutions and further copyright information.

  Follow gcmap on Facebook Follow gcmap on Twitter Follow gcmap on Google+

hCard Microformat

Geo Microformat